User: anonymous   Login
Location: Albany
(35.0000°S, 118.0000°E)
Time: 15:07:54
(UTC-04:00)
Language:

SJ-6B - Orbit

View from above orbital plane
View from above orbital plane
View from above satellite
View from above satellite

Ground track
Ground track

The orbit data is extracted from the following two-line orbital elements,

1 28415U 04035C   15109.09947375  .00004118  00000-0  29125-3 0  9998
2 28415 097.7972 120.9280 0052887 278.3393 081.1838 15.04323516579707
Epoch (UTC): 19 April 2015 02:23:14
Eccentricity: 0.0052887
inclination: 97.7972°
perigee height: 517 km
apogee height: 590 km
right ascension of ascending node: 120.9280°
argument of perigee: 278.3393°
revolutions per day: 15.04323516
mean anomaly at epoch: 81.1838°
orbit number at epoch: 57970

The dashed part of the orbit path shows where the satellite is in the earth's shadow,  

DLR